Weather History for K40J - April, 2013

Change the Weather History Date:

Thursday, April 11, 2013

  Actual Average (KCTY) Record (KCTY)
Temperature  
Mean Temperature 72 °F 66 °F  
Max Temperature 82 °F 79 °F - ()
Min Temperature 62 °F 53 °F - ()
Degree Days  
Heating Degree Days 0 2  
Month to date heating degree days 27  
Since 1 July heating degree days 1282  
Cooling Degree Days 7 3  
Month to date cooling degree days 32  
Year to date cooling degree days 106  
Growing Degree Days 22 (Base 50)    
Moisture  
Dew Point 68 °F    
Average Humidity 83    
Maximum Humidity 100    
Minimum Humidity 65    
Precipitation  
Precipitation 0.07 in 0.11 in - ()
Month to date precipitation 1.51  
Year to date precipitation 13.03  
Sea Level Pressure  
Sea Level Pressure 29.90 in    
Wind  
Wind Speed 7 mph (SSE)    
Max Wind Speed 21 mph    
Max Gust Speed 31 mph    
Visibility 10 miles    
Events      
T = Trace of Precipitation, MM = Missing Value Source: NWS Daily Summary

Daily Weather History Graph

Daily Weather History Graph

Search for Another Location

Airport or City:

Trip Planner

Search our weather history database for the weather conditions in past years. The results will help you decide how hot, cold, wet, or windy it might be!

Date:

Astronomy

Apr. 11, 2013 Rise Set
Actual Time 7:11 AM EDT 7:59 PM EDT
Civil Twilight 6:47 AM EDT 8:23 PM EDT
Nautical Twilight 6:18 AM EDT 8:52 PM EDT
Astronomical Twilight 5:49 AM EDT 9:22 PM EDT
Moon 7:48 AM EDT (4/11) 9:24 PM EDT (4/11)
Length of Visible Light 13h 36m
Length of Day
12h 47m
New Moon, 2% of the Moon is Illuminated
Apr 11
New Moon
Apr 18
First Quarter
Apr 25
Full
May 2
Last Quarter
May 9
New

Hourly Weather History & Observations

Time (EDT) Temp. Heat Index Dew Point Humidity Pressure Visibility Wind Dir Wind Speed Gust Speed Precip Events Conditions
12:15 AM 64.4 °F - 62.6 °F 94% 29.99 in 10.0 mi East 3.5 mph - N/A   Clear
12:35 AM 64.4 °F - 60.8 °F 88% 29.98 in 10.0 mi Calm Calm - N/A   Clear
12:53 AM 64.9 °F - 55.9 °F 73% 29.96 in - Calm Calm - N/A   Unknown
12:55 AM 64.4 °F - 59.0 °F 83% 29.97 in 10.0 mi Calm Calm - N/A   Mostly Cloudy
1:15 AM 64.4 °F - 60.8 °F 88% 29.97 in 10.0 mi Calm Calm - N/A   Mostly Cloudy
1:35 AM 64.4 °F - 59.0 °F 83% 29.97 in 10.0 mi Calm Calm - N/A   Scattered Clouds
1:53 AM 64.0 °F - 57.0 °F 78% 29.95 in - Calm Calm - N/A   Unknown
1:55 AM 64.4 °F - 60.8 °F 88% 29.96 in 10.0 mi ESE 3.5 mph - N/A   Clear
2:15 AM 62.6 °F - 59.0 °F 88% 29.95 in 10.0 mi Calm Calm - N/A   Clear
2:35 AM 64.4 °F - 62.6 °F 94% 29.95 in 10.0 mi ESE 4.6 mph - N/A   Clear
2:53 AM 64.0 °F - 57.9 °F 80% 29.93 in - Calm Calm - N/A   Unknown
2:55 AM 64.4 °F - 62.6 °F 94% 29.95 in 10.0 mi SE 4.6 mph - N/A   Clear
3:15 AM 64.4 °F - 62.6 °F 94% 29.94 in 10.0 mi ESE 4.6 mph - N/A   Clear
3:35 AM 66.2 °F - 64.4 °F 94% 29.94 in 10.0 mi SE 5.8 mph - N/A   Clear
3:53 AM 66.0 °F - 61.0 °F 84% 29.92 in - SE 5.8 mph - 0.02 in   Unknown
3:55 AM 66.2 °F - 64.4 °F 94% 29.93 in 10.0 mi SE 5.8 mph - N/A   Clear
4:15 AM 66.2 °F - 64.4 °F 94% 29.93 in 10.0 mi ESE 5.8 mph - N/A   Clear
4:35 AM 66.2 °F - 66.2 °F 100% 29.93 in 10.0 mi SE 5.8 mph - N/A   Clear
4:53 AM 66.0 °F - 62.1 °F 87% 29.92 in - SE 6.9 mph - 0.01 in   Unknown
4:55 AM 66.2 °F - 66.2 °F 100% 29.93 in 10.0 mi SE 6.9 mph - N/A   Clear
5:15 AM 66.2 °F - 66.2 °F 100% 29.93 in 10.0 mi SE 5.8 mph - N/A   Clear
5:35 AM 68.0 °F - 68.0 °F 100% 29.93 in 10.0 mi SE 4.6 mph - N/A   Clear
5:53 AM 66.0 °F - 64.0 °F 93% 29.92 in - SE 6.9 mph - 0.01 in   Unknown
5:55 AM 68.0 °F - 68.0 °F 100% 29.93 in 10.0 mi SE 4.6 mph - N/A   Scattered Clouds
6:15 AM 68.0 °F - 68.0 °F 100% 29.93 in 7.0 mi SE 4.6 mph - N/A   Scattered Clouds
6:35 AM 68.0 °F - 68.0 °F 100% 29.95 in 7.0 mi SE 4.6 mph - N/A   Mostly Cloudy
6:53 AM 66.9 °F - 64.0 °F 90% 29.93 in - SE 5.8 mph - 0.01 in   Unknown
6:55 AM 68.0 °F - 68.0 °F 100% 29.95 in 10.0 mi SE 4.6 mph - N/A   Overcast
7:15 AM 68.0 °F - 68.0 °F 100% 29.95 in 10.0 mi SSE 3.5 mph - N/A   Overcast
7:35 AM 69.8 °F - 69.8 °F 100% 29.96 in 10.0 mi Calm Calm - N/A   Mostly Cloudy
7:53 AM 69.1 °F - 64.9 °F 87% 29.95 in - SE 6.9 mph - 0.01 in   Unknown
7:55 AM 69.8 °F - 69.8 °F 100% 29.96 in 10.0 mi SSE 5.8 mph - N/A   Mostly Cloudy
8:15 AM 69.8 °F - 69.8 °F 100% 29.96 in 10.0 mi SSE 6.9 mph - N/A   Mostly Cloudy
8:35 AM 71.6 °F - 71.6 °F 100% 29.96 in 10.0 mi SSE 6.9 mph - N/A   Mostly Cloudy
8:53 AM 73.0 °F - 68.0 °F 84% 29.95 in - SE 9.2 mph - N/A   Unknown
8:55 AM 73.4 °F - 71.6 °F 94% 29.96 in 10.0 mi SSE 10.4 mph - N/A   Mostly Cloudy
9:15 AM 73.4 °F - 71.6 °F 94% 29.97 in 10.0 mi SSE 11.5 mph 17.3 mph N/A   Mostly Cloudy
9:35 AM 75.2 °F - 71.6 °F 89% 29.96 in 10.0 mi SSE 12.7 mph 16.1 mph N/A   Overcast
9:53 AM 75.9 °F - 69.1 °F 79% 29.95 in - SSE 10.4 mph - N/A   Unknown
9:55 AM 77.0 °F - 71.6 °F 83% 29.96 in 10.0 mi SSE 10.4 mph 16.1 mph N/A   Mostly Cloudy
10:15 AM 77.0 °F - 71.6 °F 83% 29.96 in 10.0 mi SSE 9.2 mph - N/A   Overcast
10:35 AM 78.8 °F - 71.6 °F 78% 29.97 in 10.0 mi SSE 8.1 mph 17.3 mph N/A   Overcast
10:53 AM 77.0 °F - 68.0 °F 74% 29.96 in - South 12.7 mph 18.4 mph N/A   Unknown
10:55 AM 78.8 °F - 71.6 °F 78% 29.97 in 10.0 mi South 11.5 mph 18.4 mph N/A   Overcast
11:15 AM 78.8 °F - 71.6 °F 78% 29.97 in 10.0 mi South 8.1 mph - N/A   Overcast
11:35 AM 80.6 °F 84.6 °F 71.6 °F 74% 29.97 in 10.0 mi South 11.5 mph 21.9 mph N/A   Overcast
11:53 AM 80.1 °F 82.7 °F 68.0 °F 67% 29.95 in - South 17.3 mph 24.2 mph 0.01 in   Unknown
11:55 AM 80.6 °F 84.6 °F 71.6 °F 74% 29.97 in 10.0 mi SSE 11.5 mph 23.0 mph N/A   Overcast
12:15 PM 80.6 °F 84.6 °F 71.6 °F 74% 29.97 in 10.0 mi South 10.4 mph 21.9 mph N/A   Overcast
12:35 PM 80.6 °F 84.6 °F 71.6 °F 74% 29.96 in 10.0 mi South 12.7 mph 24.2 mph N/A   Mostly Cloudy
12:53 PM 81.0 °F 83.8 °F 68.0 °F 65% 29.94 in - South 17.3 mph 26.5 mph N/A   Unknown
1:15 PM 80.6 °F 84.6 °F 71.6 °F 74% 29.95 in 10.0 mi SSW 16.1 mph 24.2 mph N/A   Mostly Cloudy
1:35 PM 80.6 °F 84.6 °F 71.6 °F 74% 29.94 in 10.0 mi South 16.1 mph 21.9 mph N/A   Mostly Cloudy
1:53 PM 81.0 °F 83.8 °F 68.0 °F 65% 29.92 in - South 16.1 mph 31.1 mph N/A   Unknown
1:55 PM 80.6 °F 84.6 °F 71.6 °F 74% 29.93 in 10.0 mi South 13.8 mph 26.5 mph N/A   Mostly Cloudy
2:15 PM 82.4 °F 87.2 °F 71.6 °F 70% 29.93 in 10.0 mi South 12.7 mph 26.5 mph N/A   Mostly Cloudy
2:35 PM 80.6 °F 84.6 °F 71.6 °F 74% 29.92 in 10.0 mi South 13.8 mph 25.3 mph N/A   Mostly Cloudy
2:53 PM 80.1 °F 82.7 °F 68.0 °F 67% 29.90 in - South 18.4 mph 31.1 mph N/A   Unknown
2:55 PM 80.6 °F 84.6 °F 71.6 °F 74% 29.91 in 10.0 mi South 13.8 mph 28.8 mph N/A   Overcast
3:15 PM 80.6 °F 84.6 °F 71.6 °F 74% 29.90 in 10.0 mi South 12.7 mph 23.0 mph N/A   Overcast
3:35 PM 80.6 °F 83.9 °F 69.8 °F 70% 29.88 in 10.0 mi South 19.6 mph 26.5 mph N/A   Overcast
3:53 PM 81.0 °F 83.8 °F 68.0 °F 65% 29.85 in - South 20.7 mph 29.9 mph N/A   Unknown
3:55 PM 80.6 °F 83.9 °F 69.8 °F 70% 29.87 in 10.0 mi South 11.5 mph 26.5 mph N/A   Mostly Cloudy
4:15 PM 80.6 °F 83.9 °F 69.8 °F 70% 29.86 in 10.0 mi South 16.1 mph 26.5 mph N/A   Mostly Cloudy
4:35 PM 80.6 °F 83.9 °F 69.8 °F 70% 29.85 in 10.0 mi South 13.8 mph 23.0 mph N/A   Overcast
4:53 PM 81.0 °F 83.8 °F 68.0 °F 65% 29.84 in - South 15.0 mph 21.9 mph N/A   Unknown
4:55 PM 80.6 °F 83.9 °F 69.8 °F 70% 29.85 in 10.0 mi South 13.8 mph 23.0 mph N/A   Overcast
5:15 PM 82.4 °F 86.3 °F 69.8 °F 66% 29.84 in 10.0 mi South 17.3 mph 25.3 mph N/A   Overcast
5:35 PM 80.6 °F 83.9 °F 69.8 °F 70% 29.84 in 10.0 mi South 15.0 mph 25.3 mph N/A   Scattered Clouds
5:53 PM 79.0 °F - 68.0 °F 69% 29.81 in - South 11.5 mph 29.9 mph N/A   Unknown
5:55 PM 80.6 °F 84.6 °F 71.6 °F 74% 29.83 in 10.0 mi South 13.8 mph - N/A   Clear
6:15 PM 78.8 °F - 71.6 °F 78% 29.82 in 10.0 mi South 16.1 mph 26.5 mph N/A   Clear
6:35 PM 78.8 °F - 71.6 °F 78% 29.82 in 10.0 mi South 12.7 mph 21.9 mph N/A   Mostly Cloudy
6:53 PM 78.1 °F - 68.0 °F 71% 29.79 in - South 15.0 mph 26.5 mph N/A   Unknown
6:55 PM 78.8 °F - 71.6 °F 78% 29.81 in 10.0 mi South 15.0 mph 20.7 mph N/A   Scattered Clouds
7:15 PM 78.8 °F - 71.6 °F 78% 29.81 in 10.0 mi South 13.8 mph 24.2 mph N/A   Scattered Clouds
7:35 PM 77.0 °F - 71.6 °F 83% 29.81 in 10.0 mi South 9.2 mph 17.3 mph N/A   Scattered Clouds
7:53 PM 75.9 °F - 68.0 °F 76% 29.79 in - South 10.4 mph 18.4 mph N/A   Unknown
7:55 PM 77.0 °F - 71.6 °F 83% 29.80 in 10.0 mi South 9.2 mph 17.3 mph N/A   Scattered Clouds
8:15 PM 77.0 °F - 71.6 °F 83% 29.80 in 10.0 mi South 9.2 mph - N/A   Clear
8:35 PM 75.2 °F - 71.6 °F 89% 29.80 in 10.0 mi South 12.7 mph 16.1 mph N/A   Clear
8:53 PM 75.0 °F - 68.0 °F 79% 29.78 in - South 11.5 mph 19.6 mph N/A   Unknown
8:55 PM 75.2 °F - 71.6 °F 89% 29.79 in 10.0 mi South 9.2 mph 16.1 mph N/A   Clear
9:15 PM 75.2 °F - 71.6 °F 89% 29.80 in 10.0 mi South 11.5 mph - N/A   Clear
9:35 PM 75.2 °F - 71.6 °F 89% 29.81 in 10.0 mi South 11.5 mph 19.6 mph N/A   Clear
9:53 PM 73.9 °F - 68.0 °F 82% 29.79 in - South 13.8 mph 23.0 mph N/A   Unknown
9:55 PM 73.4 °F - 71.6 °F 94% 29.80 in 10.0 mi South 12.7 mph 19.6 mph N/A   Clear
10:15 PM 73.4 °F - 71.6 °F 94% 29.81 in 10.0 mi South 11.5 mph 19.6 mph N/A   Scattered Clouds
10:35 PM 73.4 °F - 71.6 °F 94% 29.82 in 10.0 mi South 10.4 mph 18.4 mph N/A   Scattered Clouds
10:53 PM 73.9 °F - 68.0 °F 82% 29.81 in - South 12.7 mph - N/A   Unknown
10:55 PM 73.4 °F - 71.6 °F 94% 29.83 in 10.0 mi South 13.8 mph 18.4 mph N/A   Mostly Cloudy
11:15 PM 75.2 °F - 71.6 °F 89% 29.85 in 10.0 mi SSW 16.1 mph 23.0 mph N/A   Overcast
11:35 PM 75.2 °F - 71.6 °F 89% 29.87 in 10.0 mi South 10.4 mph 18.4 mph N/A   Overcast
11:53 PM 73.9 °F - 69.1 °F 85% 29.85 in - South 13.8 mph 19.6 mph N/A   Unknown
11:55 PM 75.2 °F - 71.6 °F 89% 29.86 in 10.0 mi South 10.4 mph 18.4 mph N/A   Overcast